Voltar ao catálogo

GNOMES-4

AtivoMeteoSSO
NORAD 58462·PAYLOAD·🇺🇸 United States

Lançado Dec 1, 2023 de Vandenberg Space Force Base

Loading…

Próximas Passagens (próximas 24 horas)

TLE

AtualizadoSource: Space-Track

Época: Sep 14, 2026, 14:41 UTC

1 58462U 23185A   26257.61227518  .00002408  00000-0  19158-3 0  9999
2 58462  97.4735 311.4658 0011411  28.6783 331.5067 15.01269977152709

Acompanhe GNOMES-4 em tempo real com AllMySat

Download on the App Store